Location: 3 Angels Observatory
(30.5437°N, 88.5068°W)
Time: 10:12:08
(UTC-06:00)

Daily predictions for brighter satellites

Satellite Brightness Start Highest point End
(mag) Time Altitude Azimuth Time Altitude Azimuth Time Altitude Azimuth
CZ-4 R/B 2.4 17:40:20 10° S 17:44:05 50° W 17:47:53 10° NNW
Cosmos 2278 Rocket 2.2 17:44:46 10° NNW 17:50:25 67° ENE 17:56:02 10° SSE
Cosmos 1703 3.6 17:47:04 10° SSE 17:50:46 43° E 17:54:29 10° NNE
SJ-6B 4.5 17:49:14 10° ESE 17:51:39 16° ENE 17:54:07 10° NNE
Cosmos 1726 2.2 17:47:58 10° N 17:51:46 90° ENE 17:55:32 10° S
Cosmos 1455 3.8 17:51:23 10° NE 17:53:41 15° ENE 17:55:58 10° ESE
Tiangong 1 2.0 17:58:00 10° SSW 18:00:42 31° SE 18:02:54 13° E
CZ-2C R/B 4.3 18:01:02 10° SSW 18:05:36 36° W 18:10:05 10° NNW
Cosmos 2279 Rocket 3.9 18:01:20 10° N 18:07:33 75° E 18:13:47 10° S
Cosmos 2237 Rocket 4.0 18:03:46 10° SW 18:08:38 30° WNW 18:13:34 10° N
Cosmos 1300 4.0 18:09:47 10° NNW 18:13:27 44° W 18:17:05 10° SSW
Cosmos 1151 Rocket 4.2 18:09:45 10° NNW 18:13:51 45° W 18:17:57 10° SSW
Meteor 1-27 4.3 18:08:49 10° N 18:14:40 90° W 18:20:31 10° S
SL-16 R/B 2.6 18:10:33 10° SSW 18:16:09 67° WNW 18:21:48 10° NNE
Atlas Centaur 2 4.4 18:13:52 10° WSW 18:16:59 15° SW 18:19:46 10° S
Cosmos 1340 Rocket 4.0 18:14:22 10° SSW 18:18:08 45° W 18:21:55 10° N
Transit 2A Rocket 4.4 18:13:51 10° NNW 18:18:09 84° ENE 18:22:33 10° SSE
Cosmos 1484 Rocket 3.6 18:14:55 10° S 18:18:44 56° W 18:22:39 10° NNW
Nadezhda 4 Rocket 4.0 18:14:43 10° S 18:20:52 66° E 18:27:06 10° NNE
ALOS 3.4 18:18:25 10° ESE 18:21:58 22° ENE 18:25:31 10° NNE
USA 229 DEB 3.7 18:15:39 10° SSW 18:22:27 75° ESE 18:29:20 10° NNE
Cosmos 1805 Rocket 4.0 18:18:06 10° SSW 18:22:32 68° W 18:26:58 10° N
USA 229 3.7 18:15:45 10° SSW 18:22:33 74° ESE 18:29:26 10° NNE
Cosmos 1184 Rocket 2.7 18:20:34 10° S 18:23:54 69° E 18:27:13 10° NNE
Helios 1B rocket 4.3 18:25:46 14° ESE 18:25:46 14° ESE 18:26:54 10° SE
Cosmos 2242 Rocket 4.4 18:21:54 10° NNE 18:25:45 28° E 18:29:34 10° SE
Cosmos 292 Rocket 4.0 18:27:42 10° S 18:32:12 44° ESE 18:35:12 19° NE
Iridium 4 Rocket 3.4 18:28:59 10° SSE 18:33:24 44° E 18:37:30 10° NNE
Cosmos 2297 3.6 18:28:37 10° NNW 18:34:20 73° ENE 18:40:02 10° SSE
NOSS 3-1 (A) 4.5 18:32:44 10° SSE 18:36:51 21° ESE 18:37:06 21° ESE
Sich 1 3.3 18:33:15 10° SSW 18:37:40 73° W 18:42:06 10° N
Cosmos 1869 3.8 18:35:26 10° NNE 18:39:11 36° E 18:42:55 10° SSE
Cosmos 1092 Rocket 3.9 18:35:59 10° S 18:42:14 70° E 18:48:33 10° N
Cosmos 1633 Rocket 3.4 18:42:15 10° SSW 18:46:38 65° W 18:51:00 10° N
Cosmos 923 Rocket 3.9 18:41:27 10° S 18:46:39 77° ESE 18:50:55 15° NNE
FENGYUN 3A 3.9 18:42:02 10° SE 18:47:03 42° ENE 18:52:04 10° N
METEOR-M 4.1 18:44:20 10° SSE 18:49:41 87° WSW 18:55:03 10° NNW
Cosmos 1680 Rocket 3.4 18:48:21 10° S 18:53:31 66° ESE 18:56:19 27° NNE
Delta 2 Rocket 3.3 18:50:26 10° SW 18:53:33 46° SSE 18:53:33 46° SSE
SL-19 R/B 4.3 18:49:06 10° SSE 18:54:59 61° ENE 19:00:33 10° N
Cosmos 1943 3.7 18:49:56 10° SSE 18:55:02 36° ESE 18:55:14 36° E
FREGAT/IRIS 3.0 18:53:38 10° S 18:56:39 63° W 18:59:41 10° NNW
Aureole 1 Rocket 4.2 18:52:26 10° SSW 18:57:19 61° WNW 19:03:50 10° N
Coronas F rocket 3.3 18:57:06 10° SW 18:59:08 24° W 18:59:27 23° WNW
OAO 1 4.4 18:54:31 10° WSW 18:59:59 86° SSE 19:01:36 47° ENE
Intelsat 5-1 Rocket 3.5 19:02:13 10° WSW 19:04:49 25° S 19:05:57 23° SSE
Lacrosse 5 rocket 2.7 19:01:23 10° NW 19:05:02 37° WSW 19:08:52 10° S
Cosmos 2195 Rocket 4.3 19:00:25 10° S 19:06:28 71° E 19:12:34 10° N
OTV 4 3.1 19:09:33 10° WSW 19:11:31 16° SW 19:11:49 16° SSW
NOSS 3-1 (C) 3.2 19:09:12 10° SSW 19:14:47 67° ESE 19:15:42 58° ENE
FengYun 1-2 T 4.1 19:11:16 10° SSE 19:16:50 89° ENE 19:22:24 10° NNW
Cosmos 1603 4.4 19:15:25 10° SW 19:20:52 52° WNW 19:24:33 20° N
OAO 1 Rocket 4.4 19:18:39 10° WNW 19:23:56 71° SSW 19:24:21 67° SSE
Resurs 01 Rocket 2.9 19:20:22 10° S 19:26:52 31° NNW 19:29:15 10° NNW
USA 215 3.2 19:24:57 58° ENE 19:25:38 61° NE 19:32:05 10° NNW
Cosmos 2112 Rocket 4.3 19:24:33 10° SSW 19:29:41 63° WNW 19:31:04 45° NNW
Cosmos 1655 Rocket 3.9 19:28:56 10° S 19:35:20 89° W 19:37:30 45° N
Tiangong 1 4.4 19:34:15 10° W 19:34:31 12° W 19:34:31 12° W
Milstar 3 4.1 19:31:08 10° W 19:36:58 32° SSW 19:41:03 20° SSE
ALOS 4.2 19:55:15 10° SSW 19:59:12 27° W 20:03:09 10° NW
Centaur D-1A AC-35 4.4 20:22:11 10° W 20:43:52 55° SW 20:43:52 55° SW
